Observer details:
568 Mauna Kea.  Observer .  Measurer S. Deen.  3.58-m Canada-France-Hawaii
    Telescope + CCD.
645 Apache Point-Sloan Digital Sky Survey.  Observer .  Measurer S. Deen.
    2.5-m reflector + CCD.
F51 Pan-STARRS 1, Haleakala.  Observers J. Bulger, K. Chambers, T. Lowe, A.
    Schultz, I. Smith.  Measurers S. Chastel, M. Huber, Y. Ramanjooloo, R.
    Wainscoat, R. Weryk.  1.8-m Ritchey-Chretien + CCD.
F52 Pan-STARRS 2, Haleakala.  Observers J. Bulger, K. Chambers, T. Dukes, T.
    Lowe, A. Schultz, I. Smith.  Measurers S. Chastel, M. Huber, Y.
    Ramanjooloo, R. Wainscoat, R. Weryk.  1.8-m Ritchey-Chretien + CCD.
W84 Cerro Tololo-DECam.  Observer .  Measurer S. Deen.  4.0-m reflector + CCD.

Orbital elements:
2001 RV143                                                                      
Epoch 2022 Jan. 21.0 TT = JDT 2459600.5                 Alexandersen            
M  12.57311              (2000.0)            P               Q                  
n   0.00312680     Peri.  278.29956     +0.91324477     -0.40683060             
a  46.3165242      Node   105.70856     +0.38212081     +0.83682083             
e   0.0788073      Incl.    1.29435     +0.14130704     +0.36636016             
P 315              H    7.01          G   0.15           U   3                  
Residuals in seconds of arc
010912 695  0.1-  0.1+    131125 F51  0.2-  0.1-    171121 F51  0.1+  0.2+
010912 695  0.3+  0.1-    131125 F51  0.3-  0.0     171121 F51  0.1-  0.4-
011019 695  0.1-  0.2+    131125 F51  0.1-  0.0     180204 F51  0.2+  0.0
011019 695  0.3+  0.3+    131126 F51  0.3-  0.3+    180904 W84  0.0   0.1+
011020 695  0.0   0.3+    140919 F51  0.3-  0.2+    181004 F52  0.4+  0.1+
011210 645  0.1+  0.1-    140929 F51  0.1+  0.3-    181016 W84  0.3+  0.1-
011210 645  0.1-  0.2-    140929 F51  0.2+  0.1+    181016 W84  0.1-  0.2-
011210 645  0.1+  0.2-    140929 F51  0.1+  0.1+    181017 W84  0.2-  0.1+
051102 568  0.2+  0.0     140929 F51  0.5+  0.1+    190124 F51  0.1-  0.3+
051102 568  0.5+  0.1+    141003 F51  0.3-  0.2-    190924 F51  0.0   0.1+
051102 568  0.3+  0.2-    141025 F51  0.4+  0.2+    190924 F51  0.1-  0.0
060917 568  0.6-  0.2-    150828 F51  0.1+  0.2+    191023 F51  0.1-  0.1-
060917 568  0.6-  0.2-    150909 F51  0.1+  0.0     191023 F51  0.0   0.0
060917 568  0.5-  0.1-    150912 F51  0.1+  0.2-    191023 F51  0.1-  0.1-
060917 568  0.3-  0.1-    150912 F51  0.1+  0.2+    191023 F51  0.0   0.1+
060917 568  0.6-  0.2-    150912 F51  0.1+  0.2-    191102 F52  0.0   0.1-
060917 568  0.3-  0.1-    150912 F51  0.1+  0.3+    191219 F51  0.2+  0.0
060917 568  0.6-  0.1-    151009 F51  0.4+  0.0     200823 F51  0.0   0.1+
060917 568  0.7-  0.1+    151214 F51  0.1+  0.1-    200823 F51  0.0   0.1-
060917 568  0.4-  0.1+    151214 F51  0.2+  0.1-    200823 F51  0.2+  0.5-
060917 568  0.0   0.1+    151214 F51  0.3-  0.2+    200823 F51  0.0   0.1+
081026 645  0.3-  0.4-    151214 F51  0.3-  0.1+    200912 F52  0.1-  0.0
081026 645  0.2-  0.1-    151231 F51  0.0   0.1-    200919 F51  0.2-  0.1+
081026 645  0.2-  0.4-    160129 F51  0.0   0.1+    200926 F51  0.2-  0.2+
101006 F51  0.2+  0.1+    160816 F51  0.1+  0.1-    201023 F52  0.3-  0.1-
101030 F51  0.2+  0.1+    161006 F51  0.0   0.1-    201208 F51  0.1-  0.3+
101030 F51  0.0   0.1+    161026 F51  0.2+  0.1+    201208 F51  0.1-  0.2-
101030 F51  0.0   0.0     161027 F51  0.0   0.1-    201208 F51  0.1+  0.1+
110923 F51  0.5+  0.1-    161028 F51  0.1+  0.1+    201208 F51  0.1-  0.2-
110923 F51  0.3+  0.1+    170803 F51  0.2+  0.1+    211013 F51  0.3+  0.1-
110923 F51  0.2-  0.5+    170923 F51  0.2-  0.3-    211031 F51  0.1+  0.1+
120211 F51  0.3-  0.2-    170923 F51  0.0   0.0     211031 F51  0.1-  0.1+
121017 F51  0.1+  0.1+    170923 F51  0.2-  0.3+    211031 F51  0.1+  0.2-
121017 F51  0.0   0.1+    170923 F51  0.2-  0.0     211031 F51  0.1-  0.0
121017 F51  0.2-  0.0     170927 F51  0.2-  0.1+    211111 F51  0.1-  0.0
121106 F51  0.2+  0.2+    171121 F51  0.4+  0.1+    211111 F51  0.2-  0.0
131125 F51  0.0   0.1-    171121 F51  0.1+  0.3-    211111 F51  0.1-  0.1+

Ephemeris:
2001 RV143               a,e,i = 46.32, 0.08, 1                  q = 42.6664
Date    TT    R. A. (2000) Decl.     Delta      r    Elong.  Phase     V
2022 02 05    02 22 11.6 +12 53 35  42.9020 42.7701    81.7     1.3    23.5
...
2022 02 20    02 22 45.0 +12 56 50  43.1532 42.7709    66.6     1.2    23.5
...
2022 02 28    02 23 10.7 +12 59 12  43.2774 42.7713    58.7     1.1    23.5
...
2022 03 06    02 23 33.2 +13 01 14  43.3642 42.7716    52.8     1.1    23.5
2022 03 07    02 23 37.2 +13 01 35  43.3781 42.7716    51.8     1.0    23.5
2022 03 08    02 23 41.3 +13 01 57  43.3918 42.7717    50.8     1.0    23.5
...
2022 03 14    02 24 07.3 +13 04 15  43.4699 42.7720    44.9     0.9    23.5
...
2022 03 22    02 24 45.3 +13 07 34  43.5622 42.7724    37.1     0.8    23.5
...
2022 04 06    02 26 05.4 +13 14 25  43.6947 42.7732    22.7     0.5    23.5

M. P. C. Staff               (C) Copyright 2022 MPC           M.P.E.C. 2022-E111




More information about the Iaude mailing list